Location: Township of South Roscoe
(37.9570°N, 100.1180°W)
Time: 06:35:47
(UTC+00:00)

PRISM - Pass Details

Date: 07 July 2022
Orbit: 554 x 578 km, 98.2° (Epoch: 12 August)

Event Time Altitude Azimuth Distance (km) Brightness Sun altitude
Rises 10:44:59 0° 32° (NNE) 2,740 ? -7.4°
Reaches altitude 10° 10:47:46 10° 53° (NE) 1,840 ? -7.0°
Maximum altitude 10:50:22 17° 94° (E) 1,454 ? -6.6°
Drops below altitude 10° 10:52:58 10° 135° (SE) 1,834 ? -6.2°
Sets 10:55:43 0° 157° (SSE) 2,726 ? -5.7°
